This is the latest recevied weather packets stored in our database for station/object 4S6DRJ-13. If no packets are shown the sender has not sent any weather packets the latest 10 day(s).
| Time | Temp. | Humidity | Pressure | Rain* | Wind** | Luminosity | Snow |
|---|---|---|---|---|---|---|---|
| 1788117539 | 28.33° C | 85% | 1010 hPa | 0 mm | 0 m/s | 0 W/m² | - |
| 1788117478 | 28.33° C | 85% | 1010 hPa | 0 mm | 0 m/s | 0 W/m² | - |
| 1788117417 | 28.33° C | 85% | 1009.9 hPa | 0 mm | 0.45 m/s, 225° | 0 W/m² | - |
| 1788117355 | 28.33° C | 85% | 1010 hPa | 0 mm | 0.89 m/s, 235° | 0 W/m² | - |
| 1788117295 | 28.33° C | 85% | 1009.9 hPa | 0 mm | 0.89 m/s, 215° | 0 W/m² | - |
| 1788117233 | 28.33° C | 84% | 1010 hPa | 0 mm | 0 m/s | 0 W/m² | - |
| 1788117173 | 28.33° C | 84% | 1010.2 hPa | 0 mm | 0.89 m/s, 240° | 0 W/m² | - |
| 1788117112 | 28.33° C | 84% | 1010.1 hPa | 0 mm | 0.45 m/s, 209° | 0 W/m² | - |
| 1788117051 | 28.33° C | 84% | 1010.3 hPa | 0 mm | 0.45 m/s, 205° | 0 W/m² | - |
| 1788116990 | 28.33° C | 84% | 1010.1 hPa | 0 mm | 0.45 m/s, 211° | 0 W/m² | - |
| 1788116928 | 28.33° C | 84% | 1010.3 hPa | 0 mm | 0 m/s | 0 W/m² | - |
| 1788116868 | 28.33° C | 84% | 1010 hPa | 0 mm | 1.79 m/s, 209° | 0 W/m² | - |
| 1788116807 | 28.33° C | 84% | 1010.2 hPa | 0 mm | 0.45 m/s, 289° | 0 W/m² | - |
| 1788116746 | 27.78° C | 84% | 1010.3 hPa | 0 mm | 0.45 m/s, 241° | 0 W/m² | - |
| 1788116685 | 27.78° C | 84% | 1010.3 hPa | 0 mm | 1.34 m/s, 240° | 0 W/m² | - |
| 1788116623 | 28.33° C | 84% | 1010.3 hPa | 0 mm | 0.45 m/s, 285° | 0 W/m² | - |
| 1788116563 | 27.78° C | 84% | 1010.4 hPa | 0 mm | 0.45 m/s, 231° | 0 W/m² | - |
| 1788116502 | 27.78° C | 84% | 1010.2 hPa | 0 mm | 0.45 m/s, 235° | 0 W/m² | - |
| 1788116441 | 27.78° C | 84% | 1010.4 hPa | 0 mm | 0 m/s | 0 W/m² | - |
| 1788116380 | 27.78° C | 84% | 1010.5 hPa | 0 mm | 0.45 m/s, 222° | 0 W/m² | - |
| 1788116319 | 27.78° C | 84% | 1010.3 hPa | 0 mm | 0.89 m/s, 256° | 0 W/m² | - |
| 1788116258 | 27.78° C | 84% | 1010.3 hPa | 0 mm | 0.45 m/s, 226° | 0 W/m² | - |
| 1788116197 | 27.78° C | 84% | 1010.3 hPa | 0 mm | 0.89 m/s, 279° | 0 W/m² | - |
| 1788116136 | 27.78° C | 84% | 1010.3 hPa | 0 mm | 0.89 m/s, 221° | 0 W/m² | - |
| 1788116075 | 27.78° C | 84% | 1010.5 hPa | 0 mm | 1.34 m/s, 238° | 0 W/m² | - |
* Rain latest hour (hover to see other rain measurements)
** Current wind speed in m/s (hover to see current wind gust speed)